Location: Deutschhof
(49.0845°N, 8.0182°E)
Time: 06:48:45
(UTC+00:00)

Daily predictions for brighter satellites

Satellite Brightness Start Highest point End
(mag) Time Altitude Azimuth Time Altitude Azimuth Time Altitude Azimuth
H-2A R/B 3.4 16:35:34 10° E 16:38:47 17° NE 16:42:03 10° NNE
Okean O Rocket 1.7 16:35:53 10° SSE 16:40:14 57° ENE 16:44:36 10° N
Cosmos 773 Rocket 4.1 16:35:53 10° NNW 16:40:59 54° ENE 16:45:59 10° SE
SeaSat 1 3.6 16:36:56 10° NNE 16:41:34 41° NW 16:46:10 10° WSW
YAOGAN 6 3.4 16:38:35 10° S 16:42:05 56° W 16:45:38 10° NNW
SMAP 3.0 16:37:36 10° SSE 16:42:14 79° ENE 16:46:55 10° NNW
Cosmos 1626 2.1 16:39:08 10° S 16:42:48 65° E 16:46:28 10° NNE
CZ-4B R/B 3.2 16:38:46 10° SSE 16:44:18 76° ENE 16:49:58 10° NNW
SL-24 R/B 4.1 16:40:30 10° SSE 16:44:49 71° ENE 16:49:29 10° N
AQUARIUS 4.1 16:44:41 10° SSE 16:49:10 80° ENE 16:53:41 10° NNW
Cosmos 2297 Rocket 4.0 16:45:25 10° W 16:50:01 25° NW 16:54:37 10° NNE
Cosmos 1603 4.0 16:44:22 10° NNW 16:50:06 79° WSW 16:55:49 10° SSE
Meteor 2-10 Rocket 4.2 16:45:38 10° N 16:50:45 35° ENE 16:55:38 10° SE
Cosmos 1606 Rocket 3.6 16:51:49 10° N 16:56:10 58° ENE 17:00:30 10° SSE
CZ-2D R/B 4.0 16:53:37 10° SE 16:57:01 31° ENE 17:00:26 10° N
H-2A R/B 2.1 16:53:27 10° NNE 16:57:56 68° ESE 17:02:17 10° S
USA 234 3.8 16:53:12 10° ENE 16:59:21 45° N 17:05:30 10° WNW
YAOGAN 1 3.7 16:56:31 10° ESE 16:59:48 22° ENE 17:03:07 10° NNE
Cosmos 1892 Rocket 4.3 16:56:03 10° SSE 16:59:54 32° E 17:03:46 10° NNE
ATLAS 5 CENTAUR R/B 1.4 16:57:22 10° SW 17:01:24 83° SE 17:06:00 10° NE
CZ-4C R/B 3.2 16:58:42 10° N 17:01:49 62° WNW 17:04:56 10° SSW
FengYun 1-2 T 4.3 16:56:18 10° SSE 17:01:52 86° ENE 17:07:31 10° NNW
Tsikada Rocket 4.4 16:57:15 10° SSW 17:03:31 68° W 17:09:47 10° N
SL-14 R/B 3.2 17:01:24 10° S 17:05:17 88° E 17:09:14 10° N
Helios 1A Rocket 4.3 17:02:41 10° ESE 17:05:41 20° ENE 17:08:41 10° NNE
RESURS DK-1 2.9 17:02:48 10° SW 17:06:54 57° WNW 17:11:00 10° NNE
MOS 1 Rocket 4.0 17:03:32 10° NE 17:07:12 26° E 17:10:49 10° SSE
ATLAS 3B R/B 3.9 17:01:17 10° NW 17:07:55 49° WSW 17:14:48 10° SSE
Cosmos 2228 2.9 17:03:53 10° N 17:08:10 84° E 17:12:27 10° S
NOSS 7 (E) 4.3 17:06:04 10° SW 17:09:44 84° NW 17:12:25 13° NE
Cosmos 2142 Rocket 4.4 17:04:00 10° N 17:10:13 82° E 17:16:21 10° S
SKYMED 2 4.1 17:09:08 10° NNE 17:13:14 39° E 17:17:18 10° SSE
Meteor 2-5 Rocket 3.7 17:08:39 10° S 17:14:13 88° WNW 17:19:48 10° NNE
Cosmos 1538 Rocket 4.0 17:09:33 10° NNW 17:14:42 60° ENE 17:19:47 10° SE
Aureole 3 4.1 17:12:01 10° NNE 17:14:55 22° ENE 17:17:29 10° ESE
CZ-4C R/B 3.1 17:09:58 10° WSW 17:14:58 44° NW 17:21:03 10° NE
CZ-3B R/B 1.8 17:14:20 10° NW 17:16:28 43° NNE 17:20:09 14° E
SJ 16-02 2.6 17:13:48 10° SSE 17:17:09 21° E 17:18:57 17° ENE
Nadezhda 4 Rocket 4.4 17:12:58 10° SSE 17:18:38 38° E 17:24:16 10° NNE
Cosmos 1777 Rocket 4.1 17:15:10 10° S 17:20:18 56° ESE 17:25:29 10° NNE
Cosmos 2263 Rocket 2.5 17:16:33 10° SW 17:22:13 71° WNW 17:27:55 10° NNE
YAOGAN 3 4.5 17:18:15 10° SSE 17:22:35 73° ENE 17:26:57 10° N
Cosmos 1455 2.9 17:22:09 10° N 17:25:36 32° ENE 17:29:04 10° SE
Cosmos 1354 Rocket 4.5 17:21:30 10° SW 17:26:47 63° WNW 17:32:07 10° NNE
Cosmos 2058 Rocket 3.1 17:23:08 10° N 17:27:37 61° ENE 17:32:04 10° SSE
Cosmos 1300 3.8 17:26:09 10° NNW 17:29:50 47° W 17:33:30 10° SSW
COSMOS 2406 4.5 17:26:40 10° N 17:31:03 22° NE 17:32:43 19° ENE
X-37B 2.8 17:30:29 10° S 17:32:19 14° SSE 17:33:14 13° SE
ARGOS 3.6 17:33:14 10° SE 17:38:06 37° ENE 17:43:00 10° N
Lacrosse 5 1.8 17:36:03 10° NW 17:41:08 79° NNE 17:45:00 17° ESE
CREW DRAGON DEMO-1 DEB 2.6 17:38:17 10° WNW 17:41:11 67° NNE 17:41:52 45° E
NOSS 3-1 (C) 4.2 17:34:26 10° NW 17:41:17 48° NE 17:47:11 18° ESE
Okean 1-7 Rocket 3.7 17:36:55 10° S 17:41:22 57° E 17:45:52 10° NNE
Cosmos 1726 Rocket 4.1 17:38:49 10° NNW 17:43:08 61° W 17:47:26 10° S
ERS-2 2.3 17:42:03 24° NE 17:43:57 47° E 17:47:28 10° S
ISS -2.4 17:41:47 10° SSW 17:44:35 25° SE 17:45:00 24° SE
Cosmos 1939 Rocket 3.7 17:41:09 10° S 17:45:12 55° W 17:49:14 10° NNW
CZ-2C R/B 3.8 17:45:50 23° E 17:45:50 23° E 17:49:53 10° SE
PSLV R/B 4.3 17:43:31 19° NNE 17:46:18 44° E 17:50:20 10° S
CSL-04 Debris 4.4 17:43:03 10° SE 17:48:09 45° ENE 17:53:16 10° N
Meteor 1-24 Rocket 4.1 17:43:08 10° SSW 17:48:24 59° WNW 17:53:40 10° N
COSMOS 2455 2.8 17:43:35 10° SSW 17:49:34 73° ESE 17:54:02 19° NE
Cosmos 1626 Rocket 3.9 17:48:33 10° SSE 17:52:37 39° E 17:54:00 30° NE
Cosmos 1833 Rocket 3.7 17:49:44 10° N 17:54:19 25° NE 17:54:41 24° NE
Cosmos 1844 4.0 17:49:19 10° S 17:54:37 43° ESE 17:57:11 27° ENE
Cosmos 2026 Rocket 4.5 17:50:21 10° SSE 17:55:45 34° E 18:01:15 10° NNE
IRS-1C Rocket 4.2 17:50:44 10° SSE 17:55:59 80° WSW 18:01:17 10° NNW
Cosmos 2082 Rocket 3.7 17:52:09 10° N 17:55:56 18° NE 17:55:56 18° NE
CZ-4 R/B 1.3 17:53:20 10° SSE 17:57:27 83° ENE 18:01:31 10° NNW
USA 229 DEB 4.2 17:51:23 10° NW 17:58:14 45° NNE 18:01:49 28° E
USA 229 4.2 17:51:30 10° NW 17:58:19 45° NNE 18:01:52 28° E
NOAA 15 4.5 17:53:34 10° SSE 17:58:48 77° ENE 18:04:05 10° NNW
COSMO-SKYMED 1 2.8 17:57:06 10° N 18:01:26 71° WNW 18:05:46 10° SSW
SL-08 RB Rocket 4.1 18:05:15 39° ENE 18:05:15 39° ENE 18:09:07 10° N
USA 267 4.2 18:04:13 25° ESE 18:05:22 26° SE 18:10:40 10° S
CZ-4B R/B 2.9 18:08:24 10° N 18:11:34 37° WNW 18:14:39 10° SW
Okean-O 2.7 18:09:10 10° S 18:13:36 77° WSW 18:18:03 10° NNW
NOSS 3-1 (A) 4.2 18:06:58 10° NW 18:13:50 48° NE 18:16:57 34° E
CZ-2C R/B 3.9 18:10:01 10° S 18:15:11 56° W 18:20:42 10° NNW
Cosmos 923 Rocket 3.9 18:11:02 10° NNW 18:16:25 87° ENE 18:21:45 10° SSE
Cosmos 1844 Rocket 2.6 18:10:54 10° SSW 18:16:33 76° ESE 18:19:24 31° NE
H-2A R/B 2.0 18:12:34 10° SSE 18:17:33 83° WSW 18:22:42 10° NNW
Cosmos 1689 Rocket 3.9 18:20:00 23° SSW 18:20:00 23° SSW 18:21:15 10° SSW
Meteor 1-21 Rocket 4.0 18:13:40 10° S 18:19:10 77° E 18:24:45 10° NNE
Aureole 2 Rocket 2.7 18:16:52 10° SSW 18:19:28 54° WSW 18:19:28 54° WSW
ATLAS 2AS CENTAUR R/B 4.1 18:13:18 10° W 18:20:28 36° NNW 18:25:30 18° NNE
Cosmos 2195 Rocket 4.5 18:15:02 10° S 18:21:14 61° E 18:27:29 10° NNE
Cosmos 158 Rocket 4.1 18:16:28 10° NNW 18:21:49 80° WSW 18:27:12 10° SSE
Meteor 2-8 Rocket 4.3 18:16:05 10° N 18:22:10 67° ENE 18:28:13 10° SSE
Cosmos 1680 Rocket 3.3 18:18:33 10° NNW 18:23:49 78° ENE 18:26:36 28° SSE
Cosmos 1898 Rocket 4.2 18:20:00 10° S 18:23:42 36° SE 18:23:42 36° SE
Cosmos 1627 Rocket 4.4 18:25:01 10° S 18:31:05 64° E 18:37:17 10° NNE
SAR-Lupe-4 4.0 18:31:27 56° NW 18:31:45 59° WNW 18:35:15 10° SSW
Cosmos 2098 Rocket 4.4 18:25:36 10° SSE 18:32:29 56° E 18:39:42 10° NNE
Cosmos 1602 Rocket 3.9 18:28:19 10° S 18:31:35 50° SSE 18:31:35 50° SSE
Cosmos 1818 3.5 18:28:05 10° SW 18:33:31 88° SE 18:34:52 53° NE
YAOGAN 1 3.5 18:31:26 10° S 18:35:37 48° W 18:39:50 10° NNW
Cosmos 1428 Rocket 4.4 18:29:54 10° S 18:36:05 65° E 18:42:22 10° NNE
CSL-04 Rocket 3.7 18:33:59 10° SSE 18:39:23 80° WSW 18:44:55 10° NNW
Helios 1A Rocket 3.8 18:36:28 10° S 18:40:30 50° W 18:44:34 10° NNW
USA 234 3.3 18:40:20 50° ENE 18:41:48 61° NNE 18:48:15 10° WNW
Iridium 4 Rocket 3.6 18:40:19 10° N 18:46:06 83° W 18:51:25 10° S
Cosmos 1092 Rocket 3.9 18:40:01 10° S 18:46:14 84° W 18:52:26 10° N
ATLAS 5 CENTAUR R/B 3.4 18:43:06 10° W 18:46:39 24° NNW 18:47:38 22° N
Cosmos 1812 Rocket 3.8 18:44:49 10° NNW 18:48:54 65° WNW 18:48:54 65° WNW
Cosmos 2344 4.2 18:44:31 10° NW 18:53:35 79° NE 18:59:35 35° SE
SJ 16-02 2.3 18:51:11 10° SW 18:55:26 46° WNW 18:56:00 43° NW
Cosmos 2112 Rocket 4.3 18:56:03 10° NNW 19:01:15 63° WSW 19:02:19 51° SSW
CZ-4C R/B 4.0 19:00:31 10° WNW 19:05:11 24° N 19:06:30 22° N
Cosmos 2263 Rocket 4.5 19:03:22 10° W 19:07:14 18° NW 19:10:38 11° N
X-37B 4.0 19:05:28 10° WSW 19:05:31 10° SW 19:05:31 10° SW
COSMOS 2406 3.7 19:10:24 10° NNW 19:14:49 54° NNW 19:14:49 54° NNW
ARGOS 4.5 19:13:24 10° SSW 19:18:21 37° W 19:23:20 10° NNW
ISS -0.4 19:17:44 10° WSW 19:17:58 12° WSW 19:17:58 12° WSW
Lacrosse 5 3.6 19:19:31 10° WNW 19:23:42 26° SW 19:24:15 26° SW
CZ-2C R/B 3.4 19:27:19 51° WSW 19:27:19 51° WSW 19:31:41 10° SSW
NOSS 3-1 (C) 4.3 19:25:14 10° NW 19:32:37 64° SW 19:34:39 50° S
COSMOS 2455 4.3 19:30:45 10° W 19:36:04 31° NW 19:37:13 29° NNW
Cosmos 1553 Rocket 4.3 19:30:06 10° NNW 19:36:14 64° W 19:36:14 64° W
Cosmos 1833 Rocket 3.9 19:33:14 10° NNW 19:36:25 35° NW 19:36:25 35° NW
USA 281 4.3 19:43:33 35° N 19:43:33 35° N 19:47:10 10° NNW
Cosmos 2082 Rocket 3.9 19:35:29 10° NNW 19:37:47 25° NNW 19:37:47 25° NNW
USA 267 4.1 19:51:34 41° SW 19:51:34 41° SW 19:55:37 10° SW
USA 229 DEB 4.1 19:42:24 10° NW 19:49:18 64° WSW 19:49:18 64° WSW
USA 229 4.1 19:42:30 10° NW 19:49:21 65° WSW 19:49:21 65° WSW
NOSS 3-1 (A) 4.4 19:57:49 10° NW 20:04:27 61° W 20:04:27 61° W
ATLAS 2AS CENTAUR R/B 4.4 20:07:17 10° NW 20:12:56 26° N 20:12:56 26° N
